sat.trackr.live / text

‹ back to catalog

VINDLER 2.1

NORAD 68488 · 2026-067CA

PAYLOAD ACTIVE UNKNOWN

§ Identity

Operator
Country
US
Launch date
2026-03-30
Launch site
AFWTR
Launch vehicle
Mass (kg)
RCS (m²)

External: N2YO · Heavens-Above · Gunter

§ Orbital elements

Epoch: 2026-09-19T07:55:28.441056Z

Period
96.50 min
Inclination
97.7662°
Eccentricity
0.0002700
Mean motion
14.92242071 rev/d
Perigee alt
589.1 km
Apogee alt
592.8 km
Semi-major
6,969.1 km
B*
8.4513e-5
RAAN
219.1818°
Arg perigee
84.5894°
Mean anomaly
275.5633°
Rev number
2,576

§ Raw data

VINDLER 2.11 68488U 26067CA  26262.33019029  .00000806  00000+0  84513-4 0  99982 68488  97.7662 219.1818 0002700  84.5894 275.5633 14.92242071 25763

JSON: /api/v1/satellites/68488 · /tle

For live sub-satellite position, see the globe view (requires WebGL).

§ Visibility from observer

Set your observer location to see the next 7 days of passes ≥ 10°. The values pass through the URL so the page stays shareable.

No JS? Fill the form by hand. The geolocation button needs JavaScript.